PSCTB SJIR-SNXQ

Flight info

Callsign PSCTB
Flight time 1h 3m
Altitude 6500
Route 103801S0423014W 094531S0415116W 090509S0412754W 080807S0410839W
Aircraft C208/L-SDFGR/C

Departure

Time 2026-04-20 18:01
Airport Engenheiro Joaquim Martins Airport (SJIR)

Arrival

Time 2026-04-20 19:04
Airport Xique-Xique Airport (SNXQ)
Time Latitude Longitude Altitude Speed Heading
2026-04-20 17:55 -13.31535 -40.87711 1713 ft 0 kts 279°
2026-04-20 17:58 -13.31533 -40.87728 1713 ft 5 kts 275°
2026-04-20 17:58 -13.31564 -40.87746 1714 ft 8 kts 158°
2026-04-20 17:59 -13.31617 -40.87714 1717 ft 9 kts 169°
2026-04-20 17:59 -13.31590 -40.87737 1715 ft 9 kts
2026-04-20 17:59 -13.31565 -40.87739 1714 ft 0 kts 349°
2026-04-20 17:59 -13.31508 -40.87751 1712 ft 28 kts 348°
2026-04-20 18:00 -13.31178 -40.87818 1695 ft 69 kts 350°
2026-04-20 18:00 -13.30606 -40.87922 1714 ft 93 kts 351°
2026-04-20 18:00 -13.29960 -40.88099 1813 ft 102 kts 333°
2026-04-20 18:00 -13.29419 -40.88589 1943 ft 106 kts 302°
2026-04-20 18:01 -13.28878 -40.89124 2093 ft 113 kts 324°
2026-04-20 18:01 -13.28222 -40.89643 2257 ft 125 kts 323°
2026-04-20 18:01 -13.27493 -40.90198 2430 ft 134 kts 324°
2026-04-20 18:01 -13.26721 -40.90782 2608 ft 143 kts 324°
2026-04-20 18:02 -13.25897 -40.91395 2775 ft 148 kts 324°
2026-04-20 18:02 -13.25059 -40.92022 2944 ft 154 kts 325°
2026-04-20 18:02 -13.24178 -40.92670 3093 ft 155 kts 324°
2026-04-20 18:02 -13.23314 -40.93308 3246 ft 151 kts 325°
2026-04-20 18:03 -13.22471 -40.93933 3390 ft 150 kts 324°
2026-04-20 18:03 -13.21629 -40.94556 3537 ft 148 kts 325°
2026-04-20 18:03 -13.20798 -40.95167 3688 ft 149 kts 324°
2026-04-20 18:03 -13.19949 -40.95797 3838 ft 151 kts 324°
2026-04-20 18:04 -13.19099 -40.96424 3990 ft 153 kts 324°
2026-04-20 18:04 -13.18233 -40.97066 4144 ft 153 kts 324°
2026-04-20 18:04 -13.17363 -40.97708 4305 ft 155 kts 324°
2026-04-20 18:04 -13.16463 -40.98373 4465 ft 161 kts 324°
2026-04-20 18:05 -13.14614 -40.99738 4781 ft 167 kts 324°
2026-04-20 18:05 -13.13653 -41.00454 4939 ft 173 kts 324°
2026-04-20 18:05 -13.12669 -41.01180 5086 ft 173 kts 324°
2026-04-20 18:06 -13.11711 -41.01885 5233 ft 170 kts 323°
2026-04-20 18:06 -13.10761 -41.02588 5381 ft 166 kts 324°
2026-04-20 18:06 -13.09820 -41.03288 5533 ft 168 kts 323°
2026-04-20 18:06 -13.08876 -41.03985 5680 ft 168 kts 324°
2026-04-20 18:07 -13.07933 -41.04676 5829 ft 168 kts 324°
2026-04-20 18:07 -13.06979 -41.05378 5976 ft 167 kts 324°
2026-04-20 18:07 -13.06054 -41.06063 6119 ft 163 kts 323°
2026-04-20 18:07 -13.05134 -41.06743 6266 ft 161 kts 324°
2026-04-20 18:08 -13.04231 -41.07406 6410 ft 158 kts 323°
2026-04-20 18:08 -13.03341 -41.08067 6486 ft 162 kts 323°
2026-04-20 18:08 -13.02413 -41.08754 6491 ft 169 kts 323°
2026-04-20 18:08 -13.01442 -41.09471 6498 ft 173 kts 323°
2026-04-20 18:09 -13.00465 -41.10193 6500 ft 176 kts 323°
2026-04-20 18:09 -12.99463 -41.10932 6499 ft 178 kts 323°
2026-04-20 18:09 -12.98448 -41.11680 6500 ft 178 kts 323°
2026-04-20 18:09 -12.97450 -41.12416 6500 ft 179 kts 323°
2026-04-20 18:10 -12.96436 -41.13166 6498 ft 180 kts 323°
2026-04-20 18:10 -12.95416 -41.13918 6498 ft 181 kts 323°
2026-04-20 18:10 -12.94396 -41.14669 6497 ft 181 kts 324°
2026-04-20 18:10 -12.93377 -41.15421 6498 ft 180 kts 323°
2026-04-20 18:11 -12.92363 -41.16170 6497 ft 181 kts 323°
2026-04-20 18:11 -12.91332 -41.16928 6494 ft 181 kts 324°
2026-04-20 18:11 -12.90393 -41.17618 6500 ft 188 kts 323°
2026-04-20 18:11 -12.89274 -41.18450 6497 ft 199 kts 323°
2026-04-20 18:12 -12.88129 -41.19293 6495 ft 202 kts 324°
2026-04-20 18:12 -12.87005 -41.20119 6496 ft 201 kts 324°
2026-04-20 18:12 -12.85874 -41.20952 6484 ft 196 kts 324°
2026-04-20 18:12 -12.84779 -41.21758 6483 ft 190 kts 324°
2026-04-20 18:13 -12.83725 -41.22535 6485 ft 187 kts 324°
2026-04-20 18:13 -12.82668 -41.23313 6484 ft 185 kts 324°
2026-04-20 18:13 -12.81632 -41.24077 6486 ft 185 kts 324°
2026-04-20 18:13 -12.80586 -41.24850 6487 ft 185 kts 324°
2026-04-20 18:14 -12.79544 -41.25616 6485 ft 186 kts 324°
2026-04-20 18:14 -12.78483 -41.26397 6486 ft 186 kts 324°
2026-04-20 18:14 -12.77437 -41.27167 6486 ft 186 kts 324°
2026-04-20 18:14 -12.76380 -41.27946 6486 ft 185 kts 324°
2026-04-20 18:15 -12.75342 -41.28709 6476 ft 184 kts 324°
2026-04-20 18:15 -12.74297 -41.29479 6471 ft 184 kts 324°
2026-04-20 18:15 -12.73270 -41.30234 6484 ft 183 kts 324°
2026-04-20 18:15 -12.72229 -41.31000 6483 ft 183 kts 324°
2026-04-20 18:16 -12.71204 -41.31756 6486 ft 182 kts 324°
2026-04-20 18:16 -12.70166 -41.32519 6484 ft 182 kts 324°
2026-04-20 18:16 -12.69145 -41.33271 6485 ft 183 kts 324°
2026-04-20 18:16 -12.68103 -41.34037 6487 ft 184 kts 324°
2026-04-20 18:17 -12.67056 -41.34808 6486 ft 185 kts 324°
2026-04-20 18:17 -12.66021 -41.35568 6486 ft 184 kts 324°
2026-04-20 18:17 -12.64977 -41.36336 6487 ft 184 kts 324°
2026-04-20 18:17 -12.63939 -41.37100 6487 ft 183 kts 324°
2026-04-20 18:18 -12.62916 -41.37852 6487 ft 183 kts 324°
2026-04-20 18:18 -12.61890 -41.38605 6487 ft 184 kts 324°
2026-04-20 18:18 -12.60840 -41.39378 6491 ft 185 kts 324°
2026-04-20 18:18 -12.59804 -41.40139 6490 ft 185 kts 324°
2026-04-20 18:19 -12.58759 -41.40908 6489 ft 184 kts 324°
2026-04-20 18:19 -12.57727 -41.41667 6488 ft 184 kts 324°
2026-04-20 18:19 -12.56685 -41.42434 6488 ft 184 kts 324°
2026-04-20 18:19 -12.55647 -41.43194 6490 ft 184 kts 324°
2026-04-20 18:20 -12.54604 -41.43962 6491 ft 185 kts 324°
2026-04-20 18:20 -12.53637 -41.44672 6489 ft 185 kts 324°
2026-04-20 18:20 -12.52590 -41.45441 6493 ft 185 kts 324°
2026-04-20 18:20 -12.51558 -41.46199 6494 ft 185 kts 324°
2026-04-20 18:21 -12.50515 -41.46965 6488 ft 183 kts 324°
2026-04-20 18:21 -12.49484 -41.47722 6485 ft 181 kts 324°
2026-04-20 18:21 -12.48471 -41.48466 6483 ft 180 kts 324°
2026-04-20 18:21 -12.47452 -41.49215 6485 ft 179 kts 324°
2026-04-20 18:22 -12.46442 -41.49957 6488 ft 177 kts 324°
2026-04-20 18:22 -12.45446 -41.50685 6491 ft 179 kts 324°
2026-04-20 18:22 -12.44424 -41.51437 6493 ft 180 kts 324°
2026-04-20 18:22 -12.43413 -41.52178 6495 ft 181 kts 324°
2026-04-20 18:23 -12.42385 -41.52933 6492 ft 181 kts 324°
2026-04-20 18:23 -12.41362 -41.53683 6493 ft 180 kts 324°
2026-04-20 18:23 -12.40349 -41.54427 6496 ft 181 kts 324°
2026-04-20 18:23 -12.39316 -41.55185 6497 ft 182 kts 324°
2026-04-20 18:24 -12.38290 -41.55938 6497 ft 183 kts 324°
2026-04-20 18:24 -12.37252 -41.56700 6494 ft 183 kts 324°
2026-04-20 18:24 -12.36230 -41.57448 6498 ft 182 kts 324°
2026-04-20 18:24 -12.35197 -41.58205 6499 ft 182 kts 324°
2026-04-20 18:25 -12.34157 -41.58968 6498 ft 182 kts 324°
2026-04-20 18:25 -12.33135 -41.59717 6498 ft 183 kts 324°
2026-04-20 18:25 -12.32098 -41.60477 6499 ft 183 kts 324°
2026-04-20 18:25 -12.31067 -41.61233 6500 ft 182 kts 324°
2026-04-20 18:26 -12.30042 -41.61984 6499 ft 183 kts 324°
2026-04-20 18:26 -12.29002 -41.62749 6497 ft 182 kts 324°
2026-04-20 18:26 -12.27977 -41.63498 6496 ft 182 kts 324°
2026-04-20 18:26 -12.26951 -41.64251 6496 ft 183 kts 324°
2026-04-20 18:27 -12.25914 -41.65010 6495 ft 182 kts 324°
2026-04-20 18:27 -12.24890 -41.65760 6495 ft 182 kts 324°
2026-04-20 18:27 -12.23858 -41.66516 6498 ft 182 kts 324°
2026-04-20 18:27 -12.22827 -41.67271 6497 ft 181 kts 324°
2026-04-20 18:28 -12.21808 -41.68019 6495 ft 182 kts 324°
2026-04-20 18:28 -12.21120 -41.68521 6494 ft 181 kts 324°
2026-04-20 18:28 -12.20105 -41.69265 6496 ft 181 kts 324°
2026-04-20 18:28 -12.19409 -41.69775 6496 ft 182 kts 324°
2026-04-20 18:29 -12.16696 -41.71761 6495 ft 181 kts 324°
2026-04-20 18:29 -12.15671 -41.72512 6494 ft 181 kts 324°
2026-04-20 18:29 -12.14656 -41.73253 6496 ft 181 kts 324°
2026-04-20 18:30 -12.13629 -41.74005 6496 ft 181 kts 324°
2026-04-20 18:30 -12.12600 -41.74758 6495 ft 182 kts 324°
2026-04-20 18:30 -12.11540 -41.75471 6495 ft 182 kts 329°
2026-04-20 18:30 -12.10467 -41.76141 6494 ft 182 kts 327°
2026-04-20 18:31 -12.09407 -41.76862 6495 ft 182 kts 326°
2026-04-20 18:31 -12.08439 -41.77661 6495 ft 180 kts 313°
2026-04-20 18:31 -12.07567 -41.78582 6490 ft 181 kts 326°
2026-04-20 18:31 -12.06836 -41.79023 6494 ft 184 kts 332°
2026-04-20 18:32 -12.05382 -41.79866 6496 ft 184 kts 328°
2026-04-20 18:32 -12.04736 -41.80294 6497 ft 183 kts 326°
2026-04-20 18:32 -12.03671 -41.81020 6497 ft 183 kts 326°
2026-04-20 18:32 -12.02624 -41.81733 6497 ft 182 kts 327°
2026-04-20 18:33 -12.01562 -41.82452 6496 ft 182 kts 327°
2026-04-20 18:33 -12.00160 -41.83402 6495 ft 182 kts 327°
2026-04-20 18:33 -11.99463 -41.83875 6495 ft 181 kts 327°
2026-04-20 18:33 -11.98409 -41.84589 6495 ft 181 kts 327°
2026-04-20 18:34 -11.97354 -41.85303 6495 ft 181 kts 327°
2026-04-20 18:34 -11.96314 -41.86008 6495 ft 181 kts 327°
2026-04-20 18:34 -11.94917 -41.86955 6495 ft 181 kts 327°
2026-04-20 18:34 -11.94202 -41.87438 6495 ft 181 kts 327°
2026-04-20 18:35 -11.93159 -41.88145 6495 ft 181 kts 327°
2026-04-20 18:35 -11.92121 -41.88847 6498 ft 181 kts 327°
2026-04-20 18:35 -11.91070 -41.89559 6499 ft 181 kts 327°
2026-04-20 18:35 -11.90016 -41.90273 6498 ft 181 kts 327°
2026-04-20 18:36 -11.88961 -41.90988 6487 ft 182 kts 327°
2026-04-20 18:36 -11.87914 -41.91695 6487 ft 182 kts 327°
2026-04-20 18:36 -11.86855 -41.92411 6486 ft 182 kts 327°
2026-04-20 18:36 -11.85801 -41.93131 6487 ft 183 kts 327°
2026-04-20 18:37 -11.84747 -41.93842 6487 ft 181 kts 326°
2026-04-20 18:37 -11.83686 -41.94558 6486 ft 182 kts 327°
2026-04-20 18:37 -11.82643 -41.95261 6486 ft 181 kts 327°
2026-04-20 18:37 -11.81586 -41.95975 6485 ft 181 kts 327°
2026-04-20 18:38 -11.80545 -41.96681 6485 ft 181 kts 327°
2026-04-20 18:38 -11.79482 -41.97396 6486 ft 183 kts 327°
2026-04-20 18:38 -11.78428 -41.98112 6487 ft 183 kts 326°
2026-04-20 18:38 -11.77361 -41.98833 6487 ft 183 kts 327°
2026-04-20 18:39 -11.76294 -41.99556 6488 ft 183 kts 327°
2026-04-20 18:39 -11.75242 -42.00266 6488 ft 182 kts 327°
2026-04-20 18:39 -11.74182 -42.00982 6487 ft 182 kts 327°
2026-04-20 18:39 -11.73135 -42.01690 6486 ft 182 kts 327°
2026-04-20 18:40 -11.72086 -42.02401 6487 ft 181 kts 326°
2026-04-20 18:40 -11.71094 -42.03075 6486 ft 180 kts 327°
2026-04-20 18:40 -11.70031 -42.03791 6488 ft 184 kts 327°
2026-04-20 18:40 -11.68967 -42.04503 6489 ft 184 kts 327°
2026-04-20 18:41 -11.67896 -42.05224 6487 ft 183 kts 327°
2026-04-20 18:41 -11.66844 -42.05940 6487 ft 183 kts 327°
2026-04-20 18:41 -11.65808 -42.06641 6486 ft 182 kts 327°
2026-04-20 18:41 -11.64749 -42.07357 6486 ft 182 kts 327°
2026-04-20 18:42 -11.63699 -42.08065 6485 ft 182 kts 327°
2026-04-20 18:42 -11.62641 -42.08780 6485 ft 182 kts 327°
2026-04-20 18:42 -11.61582 -42.09494 6485 ft 182 kts 327°
2026-04-20 18:42 -11.60535 -42.10200 6485 ft 182 kts 327°
2026-04-20 18:43 -11.59477 -42.10917 6485 ft 182 kts 327°
2026-04-20 18:43 -11.58413 -42.11634 6485 ft 182 kts 327°
2026-04-20 18:43 -11.57371 -42.12337 6486 ft 182 kts 327°
2026-04-20 18:43 -11.56308 -42.13056 6471 ft 183 kts 327°
2026-04-20 18:44 -11.55242 -42.13774 6466 ft 183 kts 327°
2026-04-20 18:44 -11.54180 -42.14492 6468 ft 182 kts 327°
2026-04-20 18:44 -11.53133 -42.15197 6479 ft 182 kts 327°
2026-04-20 18:44 -11.52069 -42.15916 6479 ft 182 kts 327°
2026-04-20 18:45 -11.51009 -42.16629 6479 ft 182 kts 327°
2026-04-20 18:45 -11.49944 -42.17350 6470 ft 183 kts 327°
2026-04-20 18:45 -11.48894 -42.18057 6469 ft 183 kts 327°
2026-04-20 18:45 -11.47832 -42.18773 6480 ft 183 kts 327°
2026-04-20 18:46 -11.46776 -42.19485 6470 ft 183 kts 327°
2026-04-20 18:46 -11.45714 -42.20201 6471 ft 183 kts 327°
2026-04-20 18:46 -11.44657 -42.20913 6478 ft 182 kts 327°
2026-04-20 18:46 -11.43595 -42.21631 6478 ft 181 kts 327°
2026-04-20 18:47 -11.42554 -42.22333 6472 ft 182 kts 327°
2026-04-20 18:47 -11.41515 -42.23032 6473 ft 182 kts 327°
2026-04-20 18:47 -11.40468 -42.23738 6479 ft 182 kts 327°
2026-04-20 18:47 -11.39408 -42.24453 6464 ft 182 kts 327°
2026-04-20 18:48 -11.38343 -42.25170 6479 ft 182 kts 327°
2026-04-20 18:48 -11.37296 -42.25876 6479 ft 182 kts 327°
2026-04-20 18:48 -11.36232 -42.26592 6479 ft 182 kts 327°
2026-04-20 18:48 -11.35181 -42.27300 6474 ft 182 kts 327°
2026-04-20 18:49 -11.34119 -42.28016 6478 ft 182 kts 327°
2026-04-20 18:49 -11.33075 -42.28720 6478 ft 181 kts 327°
2026-04-20 18:49 -11.32011 -42.29435 6479 ft 182 kts 327°
2026-04-20 18:49 -11.30963 -42.30142 6464 ft 182 kts 327°
2026-04-20 18:50 -11.29901 -42.30857 6481 ft 183 kts 327°
2026-04-20 18:50 -11.28844 -42.31568 6477 ft 183 kts 327°
2026-04-20 18:50 -11.27791 -42.32278 6472 ft 183 kts 327°
2026-04-20 18:50 -11.26722 -42.32997 6459 ft 183 kts 327°
2026-04-20 18:51 -11.25656 -42.33715 6471 ft 183 kts 327°
2026-04-20 18:51 -11.24594 -42.34430 6471 ft 183 kts 327°
2026-04-20 18:51 -11.23540 -42.35138 6471 ft 183 kts 327°
2026-04-20 18:51 -11.22476 -42.35854 6462 ft 183 kts 327°
2026-04-20 18:52 -11.21423 -42.36563 6471 ft 183 kts 327°
2026-04-20 18:52 -11.20357 -42.37280 6465 ft 183 kts 327°
2026-04-20 18:52 -11.19306 -42.37989 6471 ft 182 kts 327°
2026-04-20 18:52 -11.18242 -42.38703 6463 ft 182 kts 327°
2026-04-20 18:53 -11.17189 -42.39411 6459 ft 182 kts 327°
2026-04-20 18:53 -11.16130 -42.40124 6471 ft 182 kts 327°
2026-04-20 18:53 -11.15067 -42.40839 6471 ft 183 kts 327°
2026-04-20 18:53 -11.14022 -42.41542 6466 ft 182 kts 327°
2026-04-20 18:54 -11.12958 -42.42257 6472 ft 183 kts 327°
2026-04-20 18:54 -11.11893 -42.42975 6458 ft 183 kts 327°
2026-04-20 18:54 -11.10834 -42.43686 6470 ft 182 kts 327°
2026-04-20 18:54 -11.10129 -42.44160 6457 ft 182 kts 327°
2026-04-20 18:55 -11.08595 -42.45190 6459 ft 182 kts 327°
2026-04-20 18:55 -11.07536 -42.45903 6471 ft 182 kts 327°
2026-04-20 18:55 -11.06471 -42.46618 6460 ft 183 kts 327°
2026-04-20 18:55 -11.05408 -42.47332 6472 ft 183 kts 327°
2026-04-20 18:56 -11.04357 -42.48039 6472 ft 182 kts 327°
2026-04-20 18:56 -11.03292 -42.48754 6472 ft 182 kts 327°
2026-04-20 18:56 -11.02242 -42.49460 6462 ft 182 kts 327°
2026-04-20 18:56 -11.01168 -42.50181 6328 ft 189 kts 327°
2026-04-20 18:57 -11.00057 -42.50934 5963 ft 195 kts 326°
2026-04-20 18:57 -10.98920 -42.51700 5583 ft 195 kts 327°
2026-04-20 18:57 -10.97782 -42.52458 5212 ft 195 kts 327°
2026-04-20 18:57 -10.96683 -42.53198 4836 ft 183 kts 326°
2026-04-20 18:58 -10.95674 -42.53882 4445 ft 168 kts 327°
2026-04-20 18:58 -10.94714 -42.54520 4050 ft 160 kts 327°
2026-04-20 18:58 -10.93806 -42.55129 3665 ft 156 kts 327°
2026-04-20 18:58 -10.92906 -42.55731 3281 ft 154 kts 327°
2026-04-20 18:59 -10.92016 -42.56328 2900 ft 152 kts 327°
2026-04-20 18:59 -10.91139 -42.56915 2587 ft 146 kts 327°
2026-04-20 18:59 -10.90313 -42.57470 2373 ft 138 kts 327°
2026-04-20 18:59 -10.89531 -42.57994 2162 ft 133 kts 327°
2026-04-20 19:00 -10.88807 -42.58481 2138 ft 119 kts 327°
2026-04-20 19:00 -10.88165 -42.58909 2142 ft 103 kts 327°
2026-04-20 19:00 -10.87589 -42.59296 2145 ft 98 kts 327°
2026-04-20 19:00 -10.87024 -42.59675 2143 ft 96 kts 328°
2026-04-20 19:01 -10.86562 -42.60135 2140 ft 94 kts 290°
2026-04-20 19:01 -10.86363 -42.60717 2157 ft 86 kts 296°
2026-04-20 19:01 -10.86212 -42.61085 2134 ft 87 kts 291°
2026-04-20 19:01 -10.85967 -42.61678 2115 ft 94 kts 294°
2026-04-20 19:02 -10.85719 -42.62282 2125 ft 90 kts 291°
2026-04-20 19:02 -10.85507 -42.62877 2068 ft 91 kts 289°
2026-04-20 19:02 -10.85293 -42.63484 1998 ft 92 kts 290°
2026-04-20 19:02 -10.85071 -42.64091 1926 ft 91 kts 293°
2026-04-20 19:03 -10.84831 -42.64678 1871 ft 90 kts 291°
2026-04-20 19:03 -10.84609 -42.65277 1794 ft 91 kts 290°
2026-04-20 19:03 -10.84384 -42.65848 1716 ft 92 kts 292°
2026-04-20 19:03 -10.84149 -42.66441 1639 ft 89 kts 291°
2026-04-20 19:04 -10.83918 -42.67038 1542 ft 92 kts 291°
2026-04-20 19:04 -10.83686 -42.67637 1450 ft 88 kts 291°
2026-04-20 19:04 -10.83487 -42.68154 1410 ft 75 kts 291°
2026-04-20 19:04 -10.83347 -42.68510 1402 ft 46 kts 294°
2026-04-20 19:05 -10.83280 -42.68705 1396 ft 15 kts 289°
2026-04-20 19:05 -10.83228 -42.68837 1395 ft 17 kts 294°
2026-04-20 19:05 -10.83195 -42.68926 1396 ft 10 kts 328°
2026-04-20 19:05 -10.83193 -42.68885 1399 ft 15 kts 121°
2026-04-20 19:06 -10.83253 -42.68740 1398 ft 26 kts 114°
2026-04-20 19:06 -10.83305 -42.68614 1399 ft 14 kts 111°
2026-04-20 19:06 -10.83288 -42.68550 1401 ft 14 kts 20°
2026-04-20 19:06 -10.83206 -42.68551 1402 ft 5 kts 319°
2026-04-20 19:07 -10.83197 -42.68574 1398 ft 0 kts 276°